Wind_Speed
24 22 23 23 22 22 22 21 20 20 20 19 18 17 17 18 18 18 18 17 15 15 13 11 11 12 11 10 9 8 8 8 8 8 7 6 6 6 5 5 5 5
26 23 23 24 23 23 23 22 21 21 21 20 18 17 16 17 18 19 18 17 16 16 14 12 12 12 13 12 11 10 9 9 8 8 8 7 7 7 7 6 6 6
27 24 24 25 25 24 24 23 22 22 22 21 20 18 18 17 18 19 18 16 17 17 15 13 12 12 13 12 12 11 10 10 9 8 8 8 7 7 8 7 7 7
27 26 26 26 25 24 24 24 23 23 23 22 21 20 19 18 18 19 19 17 17 17 16 15 13 13 12 12 12 12 11 11 10 10 10 10 9 9 9 8 8 7
28 27 27 26 24 23 23 24 24 23 23 23 22 20 19 19 19 19 19 18 18 17 17 16 15 14 14 14 13 13 13 12 12 12 12 11 10 10 9 9 8 8
29 28 28 26 24 23 23 24 24 23 23 24 23 22 21 20 20 19 19 20 19 18 18 17 17 17 16 16 16 15 14 14 13 13 13 12 10 10 9 9 8 8
30 30 29 27 25 24 24 24 23 23 23 23 23 24 23 22 22 21 20 20 19 19 19 19 19 18 17 17 17 17 16 15 14 13 14 14 12 11 11 10 9 8
31 31 30 28 27 26 26 25 24 23 23 22 23 24 23 23 23 22 21 20 20 20 20 20 20 19 18 18 18 18 17 16 15 14 15 14 13 13 12 11 10 9
30 30 30 29 28 27 27 27 25 24 23 22 22 22 22 23 22 22 21 20 20 21 20 20 20 20 19 18 18 18 17 17 16 16 15 15 14 14 13 12 11 10
29 29 29 29 29 29 28 27 26 24 22 21 21 21 21 21 21 21 20 20 20 20 20 20 20 20 20 19 19 18 18 17 17 17 17 16 15 14 13 13 13 12
29 28 28 29 29 29 29 28 26 24 22 20 20 21 21 21 21 21 20 20 21 21 20 20 20 20 20 20 19 19 18 18 18 17 17 16 16 15 14 13 13 13
29 29 28 29 29 28 29 28 26 24 23 21 21 20 20 20 20 20 21 21 21 21 21 22 21 21 21 20 20 20 19 19 18 18 17 17 17 16 15 14 14 14
28 28 28 28 28 28 28 28 26 25 24 23 21 20 20 20 20 21 21 21 22 22 22 22 22 22 22 21 21 20 20 20 19 19 18 18 18 17 16 15 15 15
28 28 28 28 27 27 27 28 27 26 25 23 22 21 21 21 20 21 22 22 22 22 23 23 23 24 23 22 22 21 21 21 20 20 19 19 18 18 17 16 16 16
29 29 28 27 26 26 26 27 26 25 24 24 23 23 22 22 21 21 22 24 24 24 24 24 24 24 24 23 23 22 21 21 21 21 20 19 19 18 18 17 16 16
29 29 29 28 27 26 25 25 24 24 24 24 24 24 23 23 22 23 24 25 26 26 26 26 26 25 24 23 23 22 22 21 21 21 21 20 20 19 19 18 18 17
26 28 28 27 27 27 26 24 23 22 21 22 23 23 24 23 23 24 25 26 27 27 27 28 27 27 25 24 23 23 22 22 22 22 22 22 21 21 21 20 19 18
23 25 27 27 27 26 26 25 24 23 20 19 18 19 21 23 24 24 25 26 27 28 29 29 29 28 26 24 23 23 23 23 22 22 23 23 23 23 23 22 21 20
19 19 20 22 25 25 24 23 24 24 23 22 20 18 16 19 23 25 25 26 27 28 29 30 30 29 28 26 24 23 22 23 23 23 23 23 23 23 23 23 22 21
21 20 18 16 16 17 18 19 20 22 24 24 23 22 21 20 22 24 25 25 26 28 29 30 30 30 29 27 25 24 23 23 23 23 23 22 23 23 24 23 23 23
20 20 18 13 8 7 9 13 16 18 20 21 21 22 22 20 20 23 25 26 26 27 28 29 30 29 28 27 26 24 23 23 24 23 23 23 23 24 24 24 24 24
11 10 10 10 8 6 7 10 12 14 15 17 18 17 17 18 20 23 24 24 22 22 24 25 25 25 25 25 24 24 24 24 24 24 24 24 25 25 25 24 23 22
6 6 5 6 7 7 9 10 11 12 14 16 17 16 15 16 17 18 19 19 17 17 18 17 17 18 19 21 22 23 23 24 24 25 25 26 26 26 25 25 23 21
4 2 1 2 3 3 7 9 9 10 12 14 15 15 16 16 16 16 18 18 16 15 14 13 14 15 15 15 17 18 19 20 21 22 24 25 26 26 25 25 24 22
3 0 2 3 3 3 5 7 9 10 10 10 12 12 13 13 14 17 19 20 18 17 16 17 18 17 16 16 16 15 15 16 17 18 20 21 22 22 22 22 22 21
8 6 4 1 2 4 5 7 10 10 9 9 11 12 12 12 13 16 18 19 18 17 17 19 20 19 19 19 18 17 16 16 15 16 17 17 17 17 17 18 18 18
Wind_Direction
226 229 226 224 226 228 227 227 227 228 229 231 233 233 233 233 230 226 227 230 238 243 245 246 242 240 243 242 242 249 253 253 256 257 256 257 262 272 276 283 287 279
224 230 230 229 230 231 231 231 232 232 233 233 233 234 238 238 231 225 227 234 241 243 242 243 240 239 241 242 244 252 255 255 256 256 253 254 259 266 272 279 283 277
222 227 229 230 232 232 232 233 234 236 237 236 235 236 240 241 234 227 228 238 244 243 241 242 240 238 239 239 242 250 253 254 255 253 250 251 256 263 270 275 279 279
221 226 228 229 233 235 235 234 236 237 237 236 236 238 239 239 235 229 230 239 244 242 241 243 242 239 240 241 244 249 251 253 254 252 251 252 258 265 268 271 277 280
221 225 226 228 232 235 235 236 237 237 237 237 238 239 238 237 236 233 234 240 243 242 243 245 243 242 245 248 248 250 252 253 254 253 251 252 256 261 264 267 272 278
221 223 224 227 231 233 234 236 237 238 239 240 241 241 240 238 237 237 239 242 244 244 244 246 245 245 250 253 251 251 252 254 256 254 250 249 250 252 255 258 263 271
220 222 223 226 229 231 232 234 236 239 242 244 244 243 241 240 239 239 242 244 246 246 247 248 248 249 252 254 253 252 252 253 255 252 249 250 253 254 251 248 252 260
220 222 224 226 228 229 230 231 235 240 244 245 245 244 243 242 240 240 243 245 247 249 250 250 250 252 253 253 252 252 253 253 253 251 248 251 256 257 254 248 251 259
219 222 224 225 227 228 229 231 235 240 244 244 244 244 243 242 241 242 244 248 249 250 250 251 252 253 254 254 253 252 251 251 252 252 252 253 255 255 252 250 254 262
217 220 223 225 226 227 228 231 234 237 240 242 241 242 242 243 243 244 247 249 249 249 248 249 251 251 252 253 252 251 249 250 253 255 255 257 258 256 254 253 255 260
217 220 222 224 225 226 226 229 234 236 236 237 238 240 242 244 244 245 249 251 251 250 249 249 251 250 250 251 250 249 249 250 254 256 257 259 259 259 259 258 257 258
217 219 222 224 224 225 226 228 231 234 234 235 237 239 242 245 246 247 250 253 255 254 252 252 253 252 252 251 250 249 249 251 254 256 258 259 260 261 261 262 261 261
219 219 220 223 224 225 225 227 229 231 234 236 237 240 243 246 248 250 252 255 257 257 256 256 256 255 254 253 252 251 251 252 253 255 259 260 261 261 261 264 265 265
220 220 220 222 224 225 225 227 229 231 233 236 238 242 246 249 250 253 255 257 258 258 257 257 257 257 257 256 255 254 253 253 252 254 259 261 260 260 260 264 268 269
221 219 220 221 222 223 225 227 230 232 234 235 238 243 248 251 254 257 259 258 258 257 256 256 256 257 258 257 256 255 252 252 252 254 257 259 259 258 258 261 266 266
224 220 218 219 220 222 224 227 230 234 236 238 240 243 248 252 257 259 259 258 257 255 256 256 255 256 257 255 254 252 251 251 252 254 256 256 257 257 257 259 261 262
222 223 219 217 217 219 221 224 227 230 234 238 241 243 245 249 254 258 258 257 256 256 256 256 257 258 257 255 252 250 251 252 253 254 255 256 257 258 258 258 258 260
219 224 219 215 216 217 217 219 223 224 226 229 235 241 244 245 247 251 256 257 257 258 258 258 260 261 260 257 255 252 251 252 253 255 257 257 258 259 259 259 258 258
207 216 218 216 216 215 214 217 221 224 226 228 229 234 245 252 251 249 252 255 256 257 259 259 260 261 261 259 258 256 255 253 253 256 257 258 259 259 260 260 259 258
199 207 214 219 216 210 209 214 220 227 231 232 231 231 238 252 258 255 251 253 257 258 258 257 258 259 260 260 260 260 258 255 255 256 257 257 258 258 260 262 261 259
197 200 204 210 216 213 212 217 224 230 231 231 233 233 233 238 251 258 255 253 255 257 256 255 256 257 258 259 260 259 258 257 256 256 256 257 258 258 260 262 263 261
190 191 198 202 205 214 223 223 223 223 221 222 226 227 226 230 241 253 255 251 249 250 251 251 253 254 254 255 256 256 256 256 255 255 255 256 258 259 260 262 264 263
153 164 180 179 178 201 224 232 229 221 219 222 221 218 221 229 233 238 245 247 243 241 244 247 251 253 253 254 254 254 254 255 255 254 254 255 257 258 259 261 261 262
113 129 139 109 113 182 226 237 240 232 227 231 231 227 228 233 237 240 246 251 249 246 248 252 253 253 254 256 255 254 255 256 256 256 255 256 258 258 259 261 262 264
101 26 305 309 315 298 263 253 254 251 246 247 250 248 243 240 242 247 252 256 257 258 261 261 262 263 265 265 262 259 258 259 260 259 260 260 261 262 263 263 264 265
88 94 106 139 270 272 263 255 254 254 253 253 254 254 252 246 240 244 253 259 263 264 265 265 267 271 271 268 265 262 260 260 260 259 259 260 263 266 267 266 264 261
Height
838 840 841 842 843 844 845 846 847 848 849 850 851 852 853 854 856 857 858 859 860 861 861 862 863 864 864 865 865 865 866 866 866 866 866 866 866 866 866 866 866 866
837 838 840 841 842 843 844 845 846 847 848 849 850 851 852 853 855 856 857 858 859 859 860 861 862 863 863 864 864 865 865 865 865 865 866 866 866 866 866 865 865 865
835 836 838 839 840 841 843 844 845 846 847 848 849 850 851 852 853 855 856 857 858 858 859 860 861 861 862 863 863 864 864 864 864 864 865 865 865 865 865 865 864 864
832 834 836 837 839 840 842 843 844 844 845 846 847 849 850 851 852 853 854 855 856 857 858 859 860 860 861 862 862 862 862 863 863 863 864 864 864 864 864 864 863 863
830 832 834 836 837 839 840 841 842 843 844 845 846 848 848 849 851 852 853 854 855 856 857 857 858 859 860 860 861 861 861 861 862 862 862 862 862 862 862 863 862 862
828 830 832 834 835 837 838 839 841 842 843 844 845 846 847 848 849 850 851 852 853 854 855 856 857 857 858 859 859 860 860 860 860 861 861 861 861 861 861 861 861 860
826 828 830 832 833 835 836 838 839 841 842 843 844 845 846 847 848 849 850 851 852 853 853 854 855 856 857 857 858 858 859 859 859 859 859 859 860 860 859 859 859 859
824 826 828 830 831 833 834 836 838 839 840 841 842 844 845 846 847 848 849 850 850 851 852 853 853 854 855 855 856 857 857 858 858 858 858 858 858 858 858 858 858 857
822 824 826 828 829 831 832 833 835 837 838 839 840 842 843 844 846 847 848 848 849 850 850 851 852 852 853 854 854 855 855 856 856 857 857 857 857 856 857 857 857 856
820 822 824 825 827 828 830 832 833 835 836 837 839 840 841 843 844 845 846 847 847 848 848 849 850 850 851 852 852 853 854 854 855 855 855 855 855 855 855 855 855 855
818 820 822 823 824 826 827 830 831 833 834 835 837 838 839 841 842 843 844 845 845 846 847 847 848 849 849 850 850 851 852 852 853 853 854 854 854 854 854 854 854 854
816 817 819 821 823 824 826 828 829 831 832 833 835 836 838 839 840 841 842 843 844 844 845 846 846 847 847 848 849 849 850 851 851 851 852 852 852 853 853 853 853 853
814 815 817 819 821 822 824 825 827 829 830 831 833 834 836 837 838 839 841 841 842 843 843 844 844 845 846 846 847 847 848 849 849 849 850 850 851 851 851 851 851 851
811 813 814 816 818 820 822 824 825 826 828 830 831 832 834 835 836 837 838 839 840 841 841 842 843 843 844 844 845 845 846 846 847 847 848 848 848 849 849 850 850 850
808 810 812 813 815 817 819 821 823 825 826 828 829 830 832 833 834 835 836 837 838 839 839 840 841 841 842 842 843 843 844 844 845 845 846 846 846 847 847 847 848 848
807 807 809 811 812 814 816 819 821 823 825 826 827 828 829 831 832 833 833 834 835 836 837 838 838 839 839 840 841 841 842 842 842 843 843 844 844 844 845 845 845 846
806 807 807 808 809 811 813 815 818 820 822 823 824 825 827 828 829 830 830 831 832 833 834 835 835 836 837 838 838 839 839 840 840 841 841 841 842 842 842 843 843 843
804 807 807 806 807 808 810 812 814 816 818 820 821 823 824 825 826 827 828 829 829 830 831 831 832 833 834 835 836 836 837 838 838 838 839 839 839 839 840 840 840 841
799 805 807 806 805 806 807 810 811 813 815 816 817 819 821 823 824 825 825 827 827 827 828 829 829 830 831 833 833 834 835 835 835 836 836 836 837 837 838 838 838 838
795 800 805 807 806 805 806 807 809 811 812 813 814 815 817 819 822 823 823 824 824 825 825 826 827 828 829 830 831 832 832 833 833 833 833 834 834 834 835 835 835 836
794 796 801 805 806 807 807 807 807 808 810 811 811 811 812 815 819 821 821 821 821 822 822 823 824 825 827 828 829 829 830 831 831 831 831 831 831 831 832 832 833 833
796 799 802 803 804 807 810 810 808 808 809 810 809 810 811 812 814 817 819 819 818 818 820 821 822 823 824 825 826 827 827 828 828 828 828 828 828 828 829 829 830 830
798 801 804 803 802 805 810 811 809 808 809 809 808 809 811 811 812 815 819 819 816 817 818 819 821 822 823 823 823 824 824 824 825 825 825 825 825 825 826 826 827 828
800 801 803 803 802 804 808 809 809 809 809 808 808 808 809 811 812 814 817 818 816 816 817 818 819 820 821 821 821 821 821 822 822 822 822 822 822 823 823 823 824 825
800 801 802 802 803 805 808 809 809 809 809 808 808 808 809 811 812 813 815 815 815 816 816 816 817 818 819 819 819 819 819 819 820 820 820 820 820 820 820 820 820 821
803 803 803 804 805 807 808 809 808 808 808 808 808 809 809 810 811 812 813 814 814 814 814 814 815 816 816 817 817 817 817 817 817 818 817 817 817 817 817 817 817 818